Regional Weather Roundup
Issued by NWS

Home | Current Version | Previous Version | Text Only | Print | Product List | Glossary On
Versions: 1 2 3 4 5 6 7 8 9 10 11 12 13 14 15 16 17 18 19 20 21 22 23 24 25 26 27 28 29 30 31 32 33 34 35 36 37 38 39 40 41 42 43 44 45 46 47 48 49 50
000
ASUS44 KLUB 211301
RWRTX
WEST TEXAS WEATHER ROUNDUP
NATIONAL WEATHER SERVICE LUBBOCK TX
800 AM CDT FRI JUL 21 2017

NOTE: "FAIR" INDICATES FEW OR NO CLOUDS BELOW 12,000 FEET WITH NO
SIGNIFICANT WEATHER AND/OR OBSTRUCTIONS TO VISIBILITY.

TXZ004-006>008-010-012-014-016-OKZ002-211400-
TEXAS PANHANDLE/OKLAHOMA PANHANDLE

CITY           SKY/WX    TMP DP  RH WIND       PRES   REMARKS
AMARILLO       MOSUNNY   75  55  49 SW16      30.11R
BORGER         SUNNY     80  55  42 SW13G22   30.06R
CANADIAN       SUNNY     78  64  63 SW7       30.02R
DALHART        SUNNY     76  54  46 SW13      30.10R
DUMAS          SUNNY     77  53  43 SW16      30.09R
GUYMON         SUNNY     77  57  50 S14       30.00R
PERRYTON       SUNNY     78  60  53 S13       30.02R
$$

TXZ026-029-035-045-048-211400-
SOUTHERN PANHANDLE/SOUTH PLAINS/ROLLING PLAINS

CITY           SKY/WX    TMP DP  RH WIND       PRES   REMARKS
CHILDRESS      SUNNY     79  63  57 CALM      30.03R
SEMINOLE       SUNNY     72  57  59 S7        30.12R
LUBBOCK        MOSUNNY   77  60  55 SW8       30.11R
PLAINVIEW      SUNNY     70  57  64 SW6       30.11R
SNYDER         SUNNY     75  60  59 S8        30.09R
$$

TXZ052-054-060>062-072-078-127-140-154-169-211400-
PERMIAN BASIN/CONCHO VALLEY/BIG COUNTRY/EDWARDS PLATEAU

CITY           SKY/WX    TMP DP  RH WIND       PRES   REMARKS
ABILENE        SUNNY     77  67  71 S7        30.06R
BIG SPRING     SUNNY     77  64  63 S15       30.11R
BROWNWOOD      PTSUNNY   77  68  73 S3        30.06R
JUNCTION       MOSUNNY   77  70  79 S3        30.08R
MIDLAND        SUNNY     77  59  53 SE9       30.09R
ODESSA         SUNNY     77  59  53 S13       30.10R
SAN ANGELO     SUNNY     77  66  68 S8        30.06R
SONORA         SUNNY     77  68  73 S6        30.13R
SWEETWATER     SUNNY     78  64  62 S12       30.10R
WINK           SUNNY     75  60  59 SE9       30.05R
$$

TXZ055-058-074-075-080-082-211400-
FAR WEST/SOUTHWEST MOUNTAINS/TRANS PECOS

CITY           SKY/WX    TMP DP  RH WIND       PRES   REMARKS
ALPINE         CLOUDY    69  61  75 SW7       30.23S
EL PASO        MOCLDY    73  64  73 S5        30.13R
FORT STOCKTON  SUNNY     75  62  64 SE7       30.08R
GUADALUPE PASS CLEAR     65  61  87 SW10      30.23R
MARFA          CLEAR     63  61  93 N5        30.22R
PRESIDIO       FAIR      73  65  75 N5        30.10R
$$

TXZ014-016-019-021>030-083-211400
TEXAS TECH WEST TEXAS MESONET/TEXAS PANHANDLE/NORTHERN SOUTH PLAINS

CITY           SKY/WX    TMP DP  RH WIND       PRES   REMARKS
ABERNATHY 5ENE   N/A     71  58  63 SW7       30.12S
AMARILLO 9NNE    N/A     78  55  45 SW16      30.09R
AMARILLO 7SSE    N/A     72  55  54 SW9       30.13R
AMHERST 1NE      N/A     72  56  58 S6        30.13S
BOOTLEG 11WNW    N/A     71  55  56 SW9       30.19R
CANADIAN 6E      N/A     77  63  63 S5        30.01R
CAPROCK CYN SP   N/A     83  56  40 SW14      30.06R
CHILDRESS 2NNE   N/A     76  63  63 S6        30.02R
CLARENDON 2WSW   N/A     77  58  52 SW7       30.07S
CLAUDE 12SW      N/A     77  55  46 SW12      30.11S
DIMMITT 2NE      N/A     72  56  57 SW9       30.14R
FLOYDADA 2NNE    N/A     73  57  57 S7        30.10S
FRIONA 2NE       N/A     71  54  55 SW7       30.16R
GOODLETT 3W      N/A     78  63  59 S6        30.00R
HART 3N          N/A     68  58  69 SW7       30.13R
HEREFORD 2NW     N/A     69  52  54 SW7       30.14R
MCLEAN 1E        N/A     74  60  60 S5        30.06R
MEMPHIS 1NE      N/A     75  62  63 NW2       30.03R
MULESHOE 2SSW    N/A     70  57  64 W2        30.15R
OLTON 6S         N/A     69  57  65 SW7       30.12R
PALO DURO SP     N/A     74  55  51 SW13      30.12S
PAMPA 2E         N/A     74  57  55 SW10      30.08R
PLAINVIEW 1S     N/A     70  59  66 SW3       30.11R
SILVERTON 7ESE   N/A     76  56  49 SW12      30.10R
TULIA 2ENE       N/A     71  58  63 W10       30.12R
TURKEY 2WSW      N/A     79  59  50 SW8       30.04R
UMBARGER 3NNE    N/A     70  55  57 SW7       30.14R
$$

TXZ033>036-039>041-045>048-211400
TEXAS TECH WEST TEXAS MESONET/SOUTH PLAINS

CITY           SKY/WX    TMP DP  RH WIND       PRES   REMARKS
AIKEN 3WSW       N/A     69  60  71 SW3       30.13R
ANDREWS 2NE      N/A     72  57  58 SE7       30.10R
ANTON 6SSW       N/A     71  58  65 S2        30.12R
BROWNFIELD 2S    N/A     73  57  56 S7        30.12R
DENVR CTY 7WNW   N/A     70  54  57 E3        30.12S
GAIL 2ESE        N/A     74  58  57 SE2       30.08R
LAMESA 2SE       N/A     73  58  59 SE8       30.10S
LEVELLAND 4S     N/A     72  56  57 S5        30.13R
LUBBOCK 3WNW     N/A     76  58  52 S5        30.12R
MORTON 1ENE      N/A     70  55  57 S7        30.13S
ODONNELL 1N      N/A     76  54  47 S10       30.11R
PLAINS 3N        N/A     70  55  59 SE5       30.13R
RALLS 1SE        N/A     72  57  59 SW3       30.12R
REESE CENTER     N/A     71  56  58 S5        30.12R
SEAGRAVES 1SW    N/A     72  57  57 E3        30.12R
SEMINOLE 2NNE    N/A     71  55  58 SE5       30.11R
SLATON 2NE       N/A     75  58  54 SW5       30.11R
SNYDER 3E        N/A     76  61  60 S6        30.08R
SUNDOWN 8SW      N/A     70  56  62 S6        30.13R
TAHOKA 3NNE      N/A     73  57  56 S5        30.11R
WOLFFORTH 6SSW   N/A     73  57  57 S5        30.12R
$$

TXZ031-032-036>038-042>044-211400-
TEXAS TECH WEST TEXAS MESONET/ROLLING PLAINS

CITY           SKY/WX    TMP DP  RH WIND       PRES   REMARKS
ASPERMONT 3NE    N/A     76  63  63 SW2       30.04R
FLUVANNA 3WNW    N/A     75  57  53 S7        30.09S
GRAHAM 5SSW      N/A     76  56  50 S7        30.10R
GUTHRIE 10WSW    N/A     76  60  57 S3        30.04R
HASKELL 1NW      N/A     78  61  55 S5        30.03R
JAYTON 1SSE      N/A     76  60  57 SW6       30.05R
KNOX CITY 3NW    N/A     79  62  55 S8        30.02R
LK A HENRY 1NW   N/A     78  57  48 S5        30.07R
NORTHFIELD 1S    N/A     79  58  49 SW6       30.02R
ODELL 4ENE       N/A     79  67  65 S8        30.01R
PADUCAH 10SW     N/A     78  60  53 SW9       30.03R
POST 1NE         N/A     78  56  47 S3        30.09R
RRING SPRGS 3N   N/A     76  60  57 SW8       30.07R
SEYMOUR 3NW      N/A     81  64  55 S6        30.01R
SPUR 1W          N/A     73  60  62 W1        30.06R
WEINERT 2NNE     N/A     78  65  62 S7        30.03R
WHITE RVR 6NE    N/A     76  56  51 SW5       30.09R
$$

TXZ052-054-060>062-072-078-127-140-154-169-211400-
TEXAS TECH WEST TEXAS MESONET/PERMIAN BASIN/
CONCHO VALLEY/BIG COUNTRY/EDWARDS PLATEAU

CITY           SKY/WX    TMP DP  RH WIND       PRES   REMARKS
COYANOSA 2N      N/A     76  63  65 SE8       30.05S
JUNCTION 1SSW    N/A     78  70  76 CALM      30.09R
MERTZON 3NNE     N/A     76  68  75 S7        30.09R
SAN ANGELO 7NW   N/A     78  65  64 S2        30.07R
STRLNG CT 4WSW   N/A     76  66  71 S7        30.09R
ST LAWRNCE 5SW   N/A     75  64  69 SE8       30.10R
SWEETWATR 11SW   N/A     77  66  67 S12       30.10R
WALL 1E          N/A     78  69  73 S7        30.07R
$$

TXZ055-058-074-075-080-082-211400-
TEXAS TECH WEST TEXAS MESONET/FAR WEST/SOUTHWEST MOUNTAINS/TRANS PECOS

CITY           SKY/WX    TMP DP  RH WIND       PRES   REMARKS
PRSMN GAP BBNP   N/A     77  64  64 N5        30.08R
GUADLPE MTN NP   N/A     67  58  73 SW9       30.23S
$$



USA.gov is the U.S. government's official web portal to all federal, state and local government web resources and services.